[TLELIST] Archives

 

[list_settings.list_name] Current TLEs

October 18th 2009 PST

HST 1 20580U 90037B 09288.14434562 .00000330 00000-0 12464-4 0 4622 2 20580 028.4704 039.3713 0003499 119.4800 240.6153 15.00839469867890 ISS (ZARYA) 1 25544U 98067A 09289.51010819 .00017563 00000-0 11963-3 0 7929 2 25544 051.6426 043.8520 0007345 206.9244 253.1088 15.74957537625063 CXO 1 25867U 99040B 09288.22054727 .00000000 00000-0 10000-3 0 3826 2 25867 065.9658 064.6037 7745029 275.4038 010.2737 00.37815248 5472 ____________________________________________________________________ These 2-Line ...Continue Reading

[list_settings.list_name] Current TLEs

October 17th 2009 PST

HST 1 20580U 90037B 09287.08036891 +.00000310 +00000-0 +10994-4 0 04610 2 20580 028.4703 046.3143 0003463 108.4754 251.6237 15.00838960867734 ISS (ZARYA) 1 25544U 98067A 09289.51010819 .00017563 00000-0 11963-3 0 7929 2 25544 051.6426 043.8520 0007345 206.9244 253.1088 15.74957537625063 CXO 1 25867U 99040B 09288.22054727 .00000000 00000-0 10000-3 0 3826 2 25867 065.9658 064.6037 7745029 275.4038 010.2737 00.37815248 5472 ____________________________________________________________________ These 2-Line ...Continue Reading

[list_settings.list_name] Current TLEs

October 16th 2009 PST

HST 1 20580U 90037B 09288.14434562 .00000330 00000-0 12464-4 0 4622 2 20580 028.4704 039.3713 0003499 119.4800 240.6153 15.00839469867890 ISS (ZARYA) 1 25544U 98067A 09288.47727402 .00000004 00000-0 27955-7 0 7863 2 25544 051.6405 049.1644 0007654 203.2730 156.8453 15.74892159624904 CXO 1 25867U 99040B 09288.16666667 .00000423 00000-0 10000-3 0 3819 2 25867 065.9763 064.6105 7740299 275.3910 002.9965 00.37808272 5466 ____________________________________________________________________ These 2-Line ...Continue Reading

[list_settings.list_name] Current TLEs

October 15th 2009 PST

HST 1 20580U 90037B 09285.75039710 +.00000302 +00000-0 +10367-4 0 04609 2 20580 028.4699 054.9976 0003397 095.9488 264.1507 15.00838532867539 ISS (ZARYA) 1 25544U 98067A 09287.14265046 .00018722 00000-0 12768-3 0 7797 2 25544 051.6417 056.0240 0007521 197.4445 150.7784 15.74874029624687 CXO 1 25867U 99040B 09288.16666667 .00000423 00000-0 10000-3 0 3819 2 25867 065.9763 064.6105 7740299 275.3910 002.9965 00.37808272 5466 ____________________________________________________________________ These 2-Line ...Continue Reading

[list_settings.list_name] Current TLEs

October 14th 2009 PST

HST 1 20580U 90037B 09281.76047754 +.00000357 +00000-0 +14565-4 0 04595 2 20580 028.4690 081.0453 0003227 051.7299 308.3589 15.00837656866933 ISS (ZARYA) 1 25544U 98067A 09286.20459047 .00015680 00000-0 10789-3 0 7723 2 25544 051.6416 060.8468 0007574 193.0300 233.2604 15.74825974624549 CXO 1 25867U 99040B 09285.50000000 +.00000400 +00000-0 +10000-3 0 03801 2 25867 065.9656 064.7584 7734579 275.3853 359.9282 00.37806029005453 ____________________________________________________________________ These 2-Line ...Continue Reading

[list_settings.list_name] Current TLEs

October 13th 2009 PST

HST 1 20580U 90037B 09281.76047754 +.00000357 +00000-0 +14565-4 0 04595 2 20580 028.4690 081.0453 0003227 051.7299 308.3589 15.00837656866933 ISS (ZARYA) 1 25544U 98067A 09284.82534872 .00013484 00000-0 93619-4 0 7655 2 25544 051.6405 067.9381 0007610 188.3162 333.3449 15.74771582624323 CXO 1 25867U 99040B 09282.83333333 .00000359 00000-0 10000-3 0 3793 2 25867 065.9654 064.8722 7726445 275.4144 356.8459 00.37797355 5445 ____________________________________________________________________ These 2-Line ...Continue Reading

[list_settings.list_name] Current TLEs

October 12th 2009 PST

HST 1 20580U 90037B 09281.76047754 +.00000357 +00000-0 +14565-4 0 04595 2 20580 028.4690 081.0453 0003227 051.7299 308.3589 15.00837656866933 ISS (ZARYA) 1 25544U 98067A 09282.85807802 +.00012538 +00000-0 +87571-4 0 07549 2 25544 051.6395 078.0502 0007795 181.0611 340.4670 15.74713890624011 CXO 1 25867U 99040B 09282.83333333 .00000359 00000-0 10000-3 0 3793 2 25867 065.9654 064.8722 7726445 275.4144 356.8459 00.37797355 5445 ____________________________________________________________________ These 2-Line ...Continue Reading

[list_settings.list_name] Current TLEs

October 11th 2009 PST

HST 1 20580U 90037B 09279.89851369 +.00000375 +00000-0 +15956-4 0 04585 2 20580 028.4687 093.2015 0003125 031.7239 328.3580 15.00837150866658 ISS (ZARYA) 1 25544U 98067A 09282.91732946 .00013034 00000-0 90850-4 0 7559 2 25544 051.6398 077.7469 0007731 180.0753 317.5762 15.74717336624025 CXO 1 25867U 99040B 09282.83333333 .00000359 00000-0 10000-3 0 3793 2 25867 065.9654 064.8722 7726445 275.4144 356.8459 00.37797355 5445 ____________________________________________________________________ These 2-Line ...Continue Reading

[list_settings.list_name] Current TLEs

October 10th 2009 PST

HST 1 20580U 90037B 09279.89851369 +.00000375 +00000-0 +15956-4 0 04585 2 20580 028.4687 093.2015 0003125 031.7239 328.3580 15.00837150866658 ISS (ZARYA) 1 25544U 98067A 09282.02174966 .00010879 00000-0 76660-4 0 7505 2 25544 051.6386 082.3493 0008018 176.5282 280.6914 15.74684483623885 CXO 1 25867U 99040B 09282.83333333 .00000359 00000-0 10000-3 0 3793 2 25867 065.9654 064.8722 7726445 275.4144 356.8459 00.37797355 5445 ____________________________________________________________________ These 2-Line ...Continue Reading

[list_settings.list_name] Current TLEs

October 9th 2009 PST

HST 1 20580U 90037B 09277.97004897 +.00000342 +00000-0 +13410-4 0 04574 2 20580 028.4689 105.7860 0003156 010.5954 349.4728 15.00836144866368 ISS (ZARYA) 1 25544U 98067A 09281.49694155 .00010916 00000-0 72549-4 0 7450 2 25544 051.6384 085.0482 0008663 176.6355 183.5234 15.74670930623809 CXO 1 25867U 99040B 09280.20833333 +.00000417 +00000-0 +10000-3 0 03781 2 25867 065.9552 064.9721 7723275 275.4568 359.4104 00.37802428005433 ____________________________________________________________________ These 2-Line ...Continue Reading
  • This mailing list is a public mailing list - anyone may join or leave, at any time.
  • This mailing list is announce-only.

International Space Station (ISS) / Hubble Space Telescope (HST) / Chandra X-Ray Observatory Orbital Data via EMAIL

Privacy Policy:

Private list